Погода в Байгулове

Россия / Чувашская Республика     55°50′20″N   47°57′42″E
темп.,
°C
ветер,
м/с
пор.,
м/с
влажн.,
%
обл.,
%
осадки,
мм/ч
давл.,
гПа
погр.,
м
22 мая, вс
вс2200:00+1сз339313 0.0 100642
03:000сз349455 0.0 100557
06:00+2сз46836 0.0 1004411
09:00+5сз565993 0.0 10031502
12:00+6ссз456196 0.1 10021321
15:00+6ссз455698 0.2 10021461
18:00+5с446211 0.0 10011041
21:000с11795 0.0 100110
23 мая, пн
пн2300:00−1сз22825 0.0 100014
03:00−1зсз23875 0.0 99936
06:00+2зсз347632 0.0 999323
09:00+6зсз4562100 0.1 9981479
12:00+6з5661100 0.1 9981223
15:00+7з6764100 0.3 9991420
18:00+6зюз5878100 0.4 999947
21:00+3юз4992100 0.7 999288
24 мая, вт
вт2400:00+2юз4993100 0.3 1000437
03:00+1зюз51193100 0.3 1001577
06:00+2зюз5994100 0.0 1002499
09:00+5зюз578098 0.3 1004914
12:00+5зсз3492100 0.3 1005496
15:00+5з468998 0.4 1007458
18:00+7зюз3577100 0.0 1008555
21:00+4юз2693100 0.6 1010399
25 мая, ср
ср2500:00+3ю119491 0.1 101011
03:00+2ссз1195100 0.1 101010
06:00+5с118875 0.0 1010175
09:00+7ссз217498 0.1 1010872
12:00+7ссв2283100 0.9 1010773
15:00+8с3475100 1.9 1010921
18:00+7с258497 1.1 1010383
21:00+5ссв2491100 1.1 101093
26 мая, чт
чт2600:00+4ссз3594100 0.2 1010159
03:00+4сз4994100 1.0 1010393
06:00+5сз5108793 0.4 1011459
09:00+9ссз577098 0.4 10101041
12:00+11сз476282 0.0 10101304
15:00+13зсз4760100 0.0 10101686
18:00+11з597139 0.0 1009295
21:00+8з5127784 0.0 1010318